This is the latest recevied weather packets stored in our database for station/object AG1T-1. If no packets are shown the sender has not sent any weather packets the latest 10 day(s).
| Time | Temp. | Humidity | Pressure | Rain* | Wind** | Luminosity | Snow |
|---|---|---|---|---|---|---|---|
| 1777830603 | 17.78° C | 38% | 1019.3 hPa | 0 mm | - | 824 W/m² | - |
| 1777830003 | 17.22° C | 38% | 1019.4 hPa | 0 mm | - | 798 W/m² | - |
| 1777829403 | 16.67° C | 38% | 1019.5 hPa | 0 mm | - | 812 W/m² | - |
| 1777828803 | 16.11° C | 40% | 1019.6 hPa | 0 mm | - | 775 W/m² | - |
| 1777828203 | 16.11° C | 42% | 1019.7 hPa | 0 mm | - | 761 W/m² | - |
| 1777827603 | 15° C | 44% | 1019.7 hPa | 0 mm | - | 738 W/m² | - |
| 1777827003 | 14.44° C | 46% | 1019.8 hPa | 0 mm | - | 729 W/m² | - |
| 1777826403 | 13.89° C | 45% | 1019.8 hPa | 0 mm | - | 724 W/m² | - |
| 1777825803 | 13.33° C | 46% | 1019.9 hPa | 0 mm | - | 686 W/m² | - |
| 1777825203 | 13.33° C | 46% | 1020 hPa | 0 mm | - | 338 W/m² | - |
| 1777824603 | 13.33° C | 47% | 1020.1 hPa | 0 mm | - | 643 W/m² | - |
| 1777824003 | 13.33° C | 48% | 1020.2 hPa | 0 mm | - | 649 W/m² | - |
| 1777823403 | 12.78° C | 52% | 1020.3 hPa | 0 mm | - | 673 W/m² | - |
| 1777822803 | 11.67° C | 51% | 1020.4 hPa | 0 mm | - | 615 W/m² | - |
| 1777822203 | 12.22° C | 51% | 1020.4 hPa | 0 mm | - | 568 W/m² | - |
| 1777821603 | 11.67° C | 55% | 1020.4 hPa | 0 mm | - | 425 W/m² | - |
| 1777821003 | 10.56° C | 55% | 1020.5 hPa | 0 mm | - | 427 W/m² | - |
| 1777820403 | 10° C | 57% | 1020.6 hPa | 0 mm | - | 445 W/m² | - |
| 1777819803 | 9.44° C | 56% | 1020.7 hPa | 0 mm | - | 385 W/m² | - |
| 1777819203 | 8.89° C | 57% | 1020.6 hPa | 0 mm | - | 366 W/m² | - |
| 1777818603 | 8.33° C | 61% | 1020.6 hPa | 0 mm | - | 336 W/m² | - |
| 1777818003 | 7.22° C | 64% | 1020.6 hPa | 0 mm | - | 302 W/m² | - |
| 1777817403 | 6.67° C | 61% | 1020.6 hPa | 0 mm | - | 246 W/m² | - |
| 1777816803 | 6.67° C | 62% | 1020.6 hPa | 0 mm | - | 206 W/m² | - |
| 1777816203 | 6.11° C | 65% | 1020.6 hPa | 0 mm | - | 207 W/m² | - |
* Rain latest hour (hover to see other rain measurements)
** Current wind speed in m/s (hover to see current wind gust speed)